sep=,
ESTACION,FECHA,NIVEL(m),CAUDAL RIO(m³/s),CAUDAL CANAL(m³/s),CAUDAL TOTAL(m³/s),PLUVIOMETRIA(l/m²),TEMPERATURA AIRE(ºC),CONDUCTIVIDAD(µS/cm),pH,SOLIDOS EN SUSPENSION(mg/l),TEMPERATURA AGUA(ºC),TURBIDEZ(NTU),OXIGENO(mg/l),MATERIA ORGANICA(1/m),FOSFATOS(mg/l),AMONIO(mg/l)
AFORALEKUA,DATA,MAILA(m),IBAI EMARIA(m³/s),KANAL EMARIA(m³/s),EMARI TOTALA(m³/s),PLUBIOMETRIA(l/m²),HAIZE TENPERATURA(ºC),KONDUKTIBITATEA(µS/cm),pH,SOLIDO ESEKIAK(mg/l),UR TENPERATURA(ºC),UHERTASUNA(NTU),OXIGENOA(mg/l),MATERIA ORGANIKOA(1/m),FOSFATOAK(mg/l),AMONIOA(mg/l)
ANARBE,2013-10-01,0.252,0.371,0.069,0.44,0.0,18.8,-,-,-,-,-,-,-,-,-
ANARBE,2013-10-02,0.254,0.373,0.057,0.43,0.1,20.1,-,-,3,-,-,-,-,-,-
ANARBE,2013-10-03,0.242,0.348,0.081,0.429,0.9,23.9,-,-,23,-,-,-,-,-,-
ANARBE,2013-10-04,0.32,0.761,0.731,1.492,33.4,17.1,-,-,33,-,-,-,-,-,-
ANARBE,2013-10-05,0.263,0.402,0.436,0.838,12.4,14.3,-,-,34,-,-,-,-,-,-
ANARBE,2013-10-06,0.262,0.398,0.478,0.876,0.2,15.0,-,-,5,-,-,-,-,-,-
ANARBE,2013-10-07,0.245,0.352,0.348,0.7,0.0,12.4,-,-,49,-,-,-,-,-,-
ANARBE,2013-10-08,0.242,0.341,0.328,0.669,0.5,13.0,-,-,4,-,-,-,-,-,-
ANARBE,2013-10-09,0.239,0.333,0.283,0.617,0.0,13.6,-,-,4,-,-,-,-,-,-
ANARBE,2013-10-10,0.271,0.434,0.121,0.555,6.3,11.1,-,-,5,-,-,-,-,-,-
ANARBE,2013-10-11,0.274,0.437,0.067,0.504,0.3,7.7,-,-,4,-,-,-,-,-,-
ANARBE,2013-10-12,0.263,0.401,0.067,0.468,0.1,8.6,-,-,4,-,-,-,-,-,-
ANARBE,2013-10-13,0.257,0.389,0.066,0.455,0.0,10.9,-,-,4,-,-,-,-,-,-
ANARBE,2013-10-14,0.257,0.383,0.062,0.445,0.0,13.5,-,-,4,-,-,-,-,-,-
ANARBE,2013-10-15,0.262,0.401,0.039,0.441,4.0,15.5,-,-,4,-,-,-,-,-,-
ANARBE,2013-10-16,0.273,0.453,0.037,0.49,5.1,17.4,-,-,5,-,-,-,-,-,-
ANARBE,2013-10-17,0.276,0.444,0.044,0.488,0.1,16.0,-,-,4,-,-,-,-,-,-
ANARBE,2013-10-18,0.263,0.401,0.036,0.437,0.0,17.6,-,-,4,-,-,-,-,-,-
ANARBE,2013-10-19,0.257,0.383,0.033,0.416,0.0,17.1,-,-,4,-,-,-,-,-,-
ANARBE,2013-10-20,0.258,0.385,0.029,0.413,0.0,15.7,-,-,4,-,-,-,-,-,-
ANARBE,2013-10-21,0.254,0.373,0.029,0.401,0.0,17.6,-,-,4,-,-,-,-,-,-
ANARBE,2013-10-22,0.244,0.348,0.033,0.381,2.1,19.5,-,-,3,-,-,-,-,-,-
ANARBE,2013-10-23,0.242,0.365,0.033,0.398,0.0,14.7,-,-,8,-,-,-,-,-,-
ANARBE,2013-10-24,0.243,0.351,0.033,0.384,0.0,19.0,-,-,6,-,-,-,-,-,-
ANARBE,2013-10-25,0.252,0.367,0.033,0.4,1.3,18.8,-,-,20,-,-,-,-,-,-
ANARBE,2013-10-26,0.254,0.378,0.033,0.411,0.1,16.9,-,-,4,-,-,-,-,-,-
ANARBE,2013-10-27,0.247,0.355,0.033,0.387,0.0,14.8,-,-,3,-,-,-,-,-,-
ANARBE,2013-10-28,0.244,0.352,0.044,0.396,2.4,15.3,-,-,4,-,-,-,-,-,-
ANARBE,2013-10-29,0.291,0.563,0.131,0.694,26.4,9.6,-,-,9,-,-,-,-,-,-
ANARBE,2013-10-30,0.295,0.577,0.133,0.711,0.8,8.7,-,-,4,-,-,-,-,-,-
ANARBE,2013-10-31,0.251,0.365,0.122,0.487,0.0,6.4,-,-,4,-,-,-,-,-,-
ANARBE,2013-11-01,0.241,0.34,0.129,0.469,0.4,11.4,-,-,2,-,-,-,-,-,-
ANARBE,2013-11-02,0.249,0.36,0.132,0.492,10.6,14.9,-,-,4,-,-,-,-,-,-
ANARBE,2013-11-03,0.334,0.743,0.844,1.587,10.7,11.8,-,-,7,-,-,-,-,-,-
ANARBE,2013-11-04,0.398,1.596,0.839,2.435,33.0,12.1,-,-,20,-,-,-,-,-,-
ANARBE,2013-11-05,0.96,13.988,0.413,14.401,53.9,15.9,-,-,102,-,-,-,-,-,-
ANARBE,2013-11-06,0.65,5.253,0.378,5.632,0.7,15.0,-,-,7,-,-,-,-,-,-
ANARBE,2013-11-07,0.506,2.585,0.687,3.272,0.0,11.8,-,-,4,-,-,-,-,-,-
ANARBE,2013-11-08,0.475,2.133,0.536,2.669,8.4,11.1,-,-,4,-,-,-,-,-,-
ANARBE,2013-11-09,0.465,1.987,0.497,2.484,16.0,10.0,-,-,4,-,-,-,-,-,-
ANARBE,2013-11-10,0.62,4.639,0.408,5.047,35.0,13.5,-,-,5,-,-,-,-,-,-
ANARBE,2013-11-11,0.923,12.693,0.287,12.98,26.0,12.7,-,-,24,-,-,-,-,-,-
ANARBE,2013-11-12,0.809,9.593,0.754,10.347,48.4,12.8,-,-,7,-,-,-,-,-,-
ANARBE,2013-11-13,0.823,10.02,1.273,11.293,5.8,12.4,-,-,8,-,-,-,-,-,-
ANARBE,2013-11-14,0.677,5.718,1.395,7.113,1.7,10.2,-,-,4,-,-,-,-,-,-
ANARBE,2013-11-15,0.646,5.068,1.357,6.425,17.0,6.2,-,-,4,-,-,-,-,-,-
ANARBE,2013-11-16,0.602,4.222,1.347,5.569,0.2,5.3,-,-,4,-,-,-,-,-,-
ANARBE,2013-11-17,0.572,3.676,1.04,4.716,1.5,7.4,-,-,4,-,-,-,-,-,-
ANARBE,2013-11-18,0.617,4.821,1.162,5.983,44.2,8.7,-,-,5,-,-,-,-,-,-
ANARBE,2013-11-19,0.837,10.892,1.406,12.298,26.3,8.1,-,-,5,-,-,-,-,-,-
ANARBE,2013-11-20,0.732,7.018,1.4,8.418,10.2,5.4,-,-,4,-,-,-,-,-,-
ANARBE,2013-11-21,0.87,11.079,0.952,12.031,39.3,8.0,-,-,10,-,-,-,-,-,-
ANARBE,2013-11-22,0.829,10.253,0.889,11.142,7.6,4.9,-,-,4,-,-,-,-,-,-
ANARBE,2013-11-23,0.718,6.656,1.349,8.005,1.6,4.4,-,-,4,-,-,-,-,-,-
ANARBE,2013-11-24,0.647,5.093,1.22,6.312,0.0,5.1,-,-,4,-,-,-,-,-,-
ANARBE,2013-11-25,0.584,3.89,1.394,5.284,0.0,5.3,-,-,4,-,-,-,-,-,-
ANARBE,2013-11-26,0.533,2.996,1.502,4.498,0.0,2.9,-,-,1,-,-,-,-,-,-
ANARBE,2013-11-27,0.49,2.324,1.466,3.79,0.7,0.3,-,-,-,-,-,-,-,-,-
ANARBE,2013-11-28,0.458,1.883,1.471,3.354,0.0,0.1,-,-,-,-,-,-,-,-,-
ANARBE,2013-11-29,0.43,1.537,1.444,2.981,0.0,3.1,-,-,-,-,-,-,-,-,-
ANARBE,2013-11-30,0.461,1.967,1.463,3.431,16.4,6.2,-,-,-,-,-,-,-,-,-
ANARBE,2013-12-01,0.422,1.452,1.41,2.861,0.0,3.7,-,-,-,-,-,-,-,-,-
ANARBE,2013-12-02,0.398,1.204,1.408,2.612,0.0,4.1,-,-,-,-,-,-,-,-,-
ANARBE,2013-12-03,0.388,1.124,1.279,2.402,0.0,2.9,-,-,-,-,-,-,-,-,-
ANARBE,2013-12-04,0.36,0.885,1.374,2.259,0.0,6.6,-,-,-,-,-,-,-,-,-
ANARBE,2013-12-05,0.351,0.824,1.339,2.162,0.0,8.0,-,-,-,-,-,-,-,-,-
ANARBE,2013-12-06,0.337,0.73,1.268,1.998,0.0,5.0,-,-,-,-,-,-,-,-,-
ANARBE,2013-12-07,0.333,0.702,1.173,1.875,0.0,3.2,-,-,-,-,-,-,-,-,-
ANARBE,2013-12-08,0.323,0.649,1.064,1.712,0.0,1.7,-,-,-,-,-,-,-,-,-
ANARBE,2013-12-09,0.32,0.633,0.964,1.597,0.0,3.0,-,-,-,-,-,-,-,-,-
ANARBE,2013-12-10,0.298,0.532,1.015,1.547,0.0,5.4,-,-,0,-,-,-,-,-,-
ANARBE,2013-12-11,0.288,0.486,1.008,1.494,0.0,13.5,-,-,0,-,-,-,-,-,-
ANARBE,2013-12-12,0.285,0.476,0.932,1.408,0.0,3.4,-,-,0,-,-,-,-,-,-
ANARBE,2013-12-13,0.285,0.477,0.912,1.389,10.4,5.1,-,-,0,-,-,-,-,-,-
ANARBE,2013-12-14,0.31,0.591,1.07,1.661,3.6,6.4,-,-,0,-,-,-,-,-,-
ANARBE,2013-12-15,0.285,0.474,0.878,1.352,0.0,7.6,-,-,0,-,-,-,-,-,-
ANARBE,2013-12-16,0.284,0.47,0.784,1.253,0.0,15.3,-,-,0,-,-,-,-,-,-
ANARBE,2013-12-17,0.284,0.473,0.671,1.145,0.0,11.2,-,-,0,-,-,-,-,-,-
ANARBE,2013-12-18,0.286,0.48,0.646,1.126,1.3,11.2,-,-,0,-,-,-,-,-,-
ANARBE,2013-12-19,0.312,0.603,0.857,1.46,25.1,9.0,-,-,0,-,-,-,-,-,-
ANARBE,2013-12-20,0.36,0.887,0.989,1.876,1.9,5.7,-,-,0,-,-,-,-,-,-
ANARBE,2013-12-21,0.316,0.61,0.957,1.567,0.0,4.0,-,-,0,-,-,-,-,-,-
ANARBE,2013-12-22,0.301,0.539,0.902,1.441,0.0,6.0,-,-,0,-,-,-,-,-,-
ANARBE,2013-12-23,0.298,0.526,0.836,1.362,0.0,9.2,-,-,0,-,-,-,-,-,-
ANARBE,2013-12-24,0.279,0.468,0.869,1.337,3.8,12.7,-,-,0,-,-,-,-,-,-
ANARBE,2013-12-25,0.278,0.448,1.017,1.465,6.5,8.5,-,-,0,-,-,-,-,-,-
ANARBE,2013-12-26,0.289,0.493,1.135,1.627,7.2,6.0,-,-,0,-,-,-,-,-,-
ANARBE,2013-12-27,0.278,0.451,1.118,1.569,0.1,12.1,-,-,0,-,-,-,-,-,-
ANARBE,2013-12-28,0.291,0.503,1.218,1.721,10.5,8.4,-,-,0,-,-,-,-,-,-
ANARBE,2013-12-29,0.317,0.652,1.298,1.95,12.6,5.3,-,-,0,-,-,-,-,-,-
ANARBE,2013-12-30,0.318,0.627,1.343,1.97,0.0,4.9,-,-,0,-,-,-,-,-,-
ANARBE,2013-12-31,0.302,0.547,1.33,1.877,0.0,9.6,-,-,0,-,-,-,-,-,-
ANARBE,2014-01-01,0.291,0.497,1.316,1.813,0.1,10.8,-,-,0,-,-,-,-,-,-
ANARBE,2014-01-02,0.288,0.486,1.295,1.781,1.2,12.9,-,-,0,-,-,-,-,-,-
ANARBE,2014-01-03,0.285,0.475,1.248,1.722,2.2,11.7,-,-,0,-,-,-,-,-,-
ANARBE,2014-01-04,0.281,0.471,1.147,1.618,8.5,10.3,-,-,0,-,-,-,-,-,-
ANARBE,2014-01-05,0.271,0.427,1.288,1.715,1.1,7.2,-,-,0,-,-,-,-,-,-
ANARBE,2014-01-06,0.263,0.402,1.172,1.575,0.1,14.1,-,-,0,-,-,-,-,-,-
ANARBE,2014-01-07,0.261,0.394,1.137,1.531,0.0,14.7,-,-,0,-,-,-,-,-,-
ANARBE,2014-01-08,0.256,0.378,1.065,1.443,0.0,16.9,-,-,0,-,-,-,-,-,-
ANARBE,2014-01-09,0.262,0.405,0.91,1.316,0.0,13.8,-,-,0,-,-,-,-,-,-
ANARBE,2014-01-10,0.249,0.359,0.973,1.332,0.0,8.5,-,-,0,-,-,-,-,-,-
ANARBE,2014-01-11,0.248,0.355,0.917,1.272,0.0,8.3,-,-,0,-,-,-,-,-,-
ANARBE,2014-01-12,0.249,0.359,0.883,1.242,2.0,11.3,-,-,0,-,-,-,-,-,-
ANARBE,2014-01-13,0.256,0.38,0.952,1.332,8.7,7.9,-,-,0,-,-,-,-,-,-
ANARBE,2014-01-14,0.26,0.393,1.064,1.457,8.3,7.9,-,-,0,-,-,-,-,-,-
ANARBE,2014-01-15,0.262,0.398,1.102,1.499,2.9,10.7,-,-,0,-,-,-,-,-,-
ANARBE,2014-01-16,0.26,0.392,1.095,1.487,4.0,9.3,-,-,0,-,-,-,-,-,-
ANARBE,2014-01-17,0.256,0.38,1.009,1.388,0.0,9.5,-,-,0,-,-,-,-,-,-
ANARBE,2014-01-18,0.256,0.38,0.989,1.369,3.9,9.1,-,-,0,-,-,-,-,-,-
ANARBE,2014-01-19,0.269,0.426,1.185,1.611,10.7,3.9,-,-,0,-,-,-,-,-,-
ANARBE,2014-01-20,0.388,1.259,1.398,2.658,21.6,5.0,-,-,0,-,-,-,-,-,-
ANARBE,2014-01-21,0.451,1.802,1.466,3.268,1.3,6.2,-,-,0,-,-,-,-,-,-
ANARBE,2014-01-22,0.543,3.368,1.441,4.809,33.4,7.5,-,-,0,-,-,-,-,-,-
ANARBE,2014-01-23,0.824,10.293,1.175,11.467,34.7,8.2,-,-,0,-,-,-,-,-,-
ANARBE,2014-01-24,1.032,19.593,1.218,20.811,83.8,10.1,-,-,0,-,-,-,-,-,-
ANARBE,2014-01-25,1.63,48.677,0.236,48.913,79.3,11.5,-,-,0,-,-,-,-,-,-
ANARBE,2014-01-26,1.184,21.66,0.121,21.78,23.0,12.1,-,-,0,-,-,-,-,-,-
ANARBE,2014-01-27,1.055,15.578,0.103,15.681,40.1,6.3,-,-,0,-,-,-,-,-,-
ANARBE,2014-01-28,0.995,14.208,0.102,14.31,9.7,5.9,-,-,0,-,-,-,-,-,-
ANARBE,2014-01-29,0.858,11.458,0.536,11.995,13.6,4.9,-,-,0,-,-,-,-,-,-
ANARBE,2014-01-30,0.841,11.109,1.181,12.29,28.8,5.1,-,-,0,-,-,-,-,-,-
ANARBE,2014-01-31,0.837,11.027,1.49,12.517,7.2,8.0,-,-,0,-,-,-,-,-,-
ANARBE,2014-02-01,0.863,11.376,1.468,12.845,49.5,6.8,-,-,0,-,-,-,-,-,-
ANARBE,2014-02-02,0.837,10.926,1.449,12.375,2.0,4.7,-,-,0,-,-,-,-,-,-
ANARBE,2014-02-03,0.754,7.602,1.461,9.063,2.8,6.1,-,-,0,-,-,-,-,-,-
ANARBE,2014-02-04,0.685,5.865,1.499,7.364,0.1,6.6,-,-,0,-,-,-,-,-,-
ANARBE,2014-02-05,0.642,4.98,1.453,6.433,0.1,9.5,-,-,0,-,-,-,-,-,-
ANARBE,2014-02-06,0.599,4.165,1.432,5.597,1.5,13.9,-,-,0,-,-,-,-,-,-
ANARBE,2014-02-07,0.579,3.798,1.393,5.191,5.8,10.5,-,-,0,-,-,-,-,-,-
ANARBE,2014-02-08,0.567,3.59,1.38,4.97,15.3,8.5,-,-,0,-,-,-,-,-,-
ANARBE,2014-02-09,0.541,3.139,1.352,4.492,0.0,5.8,-,-,0,-,-,-,-,-,-
ANARBE,2014-02-10,0.645,5.186,1.449,6.635,50.6,6.7,-,-,0,-,-,-,-,-,-
ANARBE,2014-02-11,0.69,5.979,1.488,7.468,7.7,5.1,-,-,0,-,-,-,-,-,-
ANARBE,2014-02-12,0.638,4.91,1.409,6.319,0.5,7.5,-,-,0,-,-,-,-,-,-
ANARBE,2014-02-13,0.604,4.254,1.379,5.633,0.5,11.4,-,-,0,-,-,-,-,-,-
ANARBE,2014-02-14,0.574,3.706,1.393,5.099,3.1,15.9,-,-,0,-,-,-,-,-,-
ANARBE,2014-02-15,0.548,3.247,1.391,4.637,0.3,9.3,-,-,0,-,-,-,-,-,-
ANARBE,2014-02-16,0.511,2.645,1.373,4.018,0.2,6.5,-,-,0,-,-,-,-,-,-
ANARBE,2014-02-17,0.482,2.214,1.358,3.572,0.0,9.2,-,-,0,-,-,-,-,-,-
ANARBE,2014-02-18,0.467,2.009,1.526,3.535,16.3,8.3,-,-,0,-,-,-,-,-,-
ANARBE,2014-02-19,0.485,2.264,1.539,3.803,10.6,7.2,-,-,0,-,-,-,-,-,-
ANARBE,2014-02-20,0.475,2.125,1.27,3.395,8.7,9.4,-,-,0,-,-,-,-,-,-
ANARBE,2014-02-21,0.535,3.039,1.394,4.432,14.7,6.4,-,-,0,-,-,-,-,-,-
ANARBE,2014-02-22,0.5,2.481,1.458,3.938,0.0,5.5,-,-,0,-,-,-,-,-,-
ANARBE,2014-02-23,0.478,2.155,1.437,3.592,0.0,10.3,-,-,0,-,-,-,-,-,-
ANARBE,2014-02-24,0.46,1.904,1.408,3.312,0.0,12.1,-,-,0,-,-,-,-,-,-
ANARBE,2014-02-25,0.45,1.792,1.406,3.198,14.6,8.9,-,-,0,-,-,-,-,-,-
ANARBE,2014-02-26,0.462,1.975,1.42,3.395,18.4,4.0,-,-,0,-,-,-,-,-,-
ANARBE,2014-02-27,0.482,2.208,1.437,3.645,5.3,6.8,-,-,0,-,-,-,-,-,-
ANARBE,2014-02-28,0.522,2.855,1.452,4.307,19.0,6.6,-,-,0,-,-,-,-,-,-
ANARBE,2014-03-01,0.624,4.647,1.446,6.093,27.4,6.8,-,-,0,-,-,-,-,-,-
ANARBE,2014-03-02,0.639,4.92,1.458,6.379,15.9,9.9,-,-,0,-,-,-,-,-,-
ANARBE,2014-03-03,0.736,7.311,1.399,8.71,35.3,7.8,-,-,0,-,-,-,-,-,-
ANARBE,2014-03-04,0.842,11.137,1.468,12.606,24.6,8.0,-,-,0,-,-,-,-,-,-
ANARBE,2014-03-05,1.14,20.2,1.429,21.629,59.8,10.0,-,-,0,-,-,-,-,-,-
ANARBE,2014-03-06,0.944,13.203,1.45,14.653,2.0,9.4,-,-,0,-,-,-,-,-,-
ANARBE,2014-03-07,0.791,9.092,1.443,10.535,0.0,8.6,-,-,0,-,-,-,-,-,-
ANARBE,2014-03-08,0.706,6.344,1.393,7.736,0.0,11.6,-,-,0,-,-,-,-,-,-
ANARBE,2014-03-09,0.642,4.98,1.33,6.31,0.0,15.7,-,-,0,-,-,-,-,-,-
ANARBE,2014-03-10,0.591,4.019,1.388,5.407,0.0,9.4,-,-,0,-,-,-,-,-,-
ANARBE,2014-03-11,0.547,3.232,1.462,4.694,0.0,7.8,-,-,0,-,-,-,-,-,-
ANARBE,2014-03-12,0.514,2.688,1.501,4.19,0.0,10.8,-,-,0,-,-,-,-,-,-
ANARBE,2014-03-13,0.485,2.252,1.466,3.719,0.0,9.8,-,-,0,-,-,-,-,-,-
ANARBE,2014-03-14,0.456,1.86,1.439,3.299,0.0,9.1,-,-,0,-,-,-,-,-,-
ANARBE,2014-03-15,0.437,1.617,1.41,3.026,0.0,7.9,-,-,0,-,-,-,-,-,-
ANARBE,2014-03-16,0.417,1.398,1.374,2.772,0.0,9.7,-,-,0,-,-,-,-,-,-
ANARBE,2014-03-17,0.396,1.181,1.398,2.579,0.0,9.9,-,-,0,-,-,-,-,-,-
ANARBE,2014-03-18,0.384,1.072,1.356,2.429,1.3,9.2,-,-,0,-,-,-,-,-,-
ANARBE,2014-03-19,0.373,0.986,1.225,2.211,0.0,9.8,-,-,0,-,-,-,-,-,-
ANARBE,2014-03-20,0.37,0.961,1.114,2.076,0.0,12.0,-,-,0,-,-,-,-,-,-
ANARBE,2014-03-21,0.368,0.945,0.945,1.889,1.9,13.8,-,-,0,-,-,-,-,-,-
ANARBE,2014-03-22,0.375,0.999,1.267,2.266,25.6,7.4,-,-,0,-,-,-,-,-,-
ANARBE,2014-03-23,0.452,1.866,1.604,3.47,29.4,4.4,-,-,0,-,-,-,-,-,-
ANARBE,2014-03-24,0.452,1.83,1.433,3.263,10.4,6.4,-,-,0,-,-,-,-,-,-
ANARBE,2014-03-25,0.581,3.874,1.445,5.319,41.9,7.3,-,-,0,-,-,-,-,-,-
ANARBE,2014-03-26,0.805,9.686,1.586,11.272,29.5,7.2,-,-,0,-,-,-,-,-,-
ANARBE,2014-03-27,0.716,6.601,1.414,8.015,11.1,7.3,-,-,0,-,-,-,-,-,-
ANARBE,2014-03-28,0.63,4.744,1.479,6.222,0.0,11.9,-,-,0,-,-,-,-,-,-
ANARBE,2014-03-29,0.577,3.762,1.423,5.185,0.0,14.6,-,-,0,-,-,-,-,-,-
ANARBE,2014-03-30,0.525,2.877,1.382,4.259,0.0,13.7,-,-,0,-,-,-,-,-,-
ANARBE,2014-03-31,0.498,2.441,1.344,3.785,0.0,17.4,-,-,0,-,-,-,-,-,-
ANARBE,2014-04-01,0.476,2.13,1.242,3.372,0.0,18.7,-,-,0,-,-,-,-,-,-
ANARBE,2014-04-02,0.447,1.74,1.421,3.161,0.3,16.9,-,-,0,-,-,-,-,-,-
ANARBE,2014-04-03,0.459,1.943,1.461,3.404,13.2,10.1,-,-,0,-,-,-,-,-,-
ANARBE,2014-04-04,0.481,2.208,1.472,3.68,7.6,12.4,-,-,0,-,-,-,-,-,-
ANARBE,2014-04-05,0.451,1.786,1.405,3.191,2.0,14.4,-,-,0,-,-,-,-,-,-
ANARBE,2014-04-06,0.433,1.575,1.359,2.934,0.0,16.3,-,-,0,-,-,-,-,-,-
ANARBE,2014-04-07,0.418,1.408,1.329,2.737,0.0,16.4,-,-,0,-,-,-,-,-,-
ANARBE,2014-04-08,0.403,1.254,1.457,2.711,3.7,11.5,-,-,0,-,-,-,-,-,-
ANARBE,2014-04-09,0.378,1.023,1.502,2.524,0.0,11.8,-,-,0,-,-,-,-,-,-
ANARBE,2014-04-10,0.356,0.861,1.464,2.325,0.8,13.9,-,-,0,-,-,-,-,-,-
ANARBE,2014-04-11,0.347,0.798,1.442,2.24,0.0,12.7,-,-,0,-,-,-,-,-,-
ANARBE,2014-04-12,0.336,0.728,1.439,2.167,0.0,11.6,-,-,0,-,-,-,-,-,-
ANARBE,2014-04-13,0.326,0.664,1.385,2.049,0.0,13.1,-,-,0,-,-,-,-,-,-
ANARBE,2014-04-14,0.327,0.668,1.291,1.959,0.0,13.2,-,-,0,-,-,-,-,-,-
ANARBE,2014-04-15,0.319,0.628,1.193,1.821,0.0,15.3,-,-,0,-,-,-,-,-,-
ANARBE,2014-04-16,0.316,0.612,1.1,1.712,0.0,13.9,-,-,0,-,-,-,-,-,-
ANARBE,2014-04-17,0.321,0.64,1.019,1.658,0.0,11.7,-,-,0,-,-,-,-,-,-
ANARBE,2014-04-18,0.329,0.681,0.96,1.641,0.0,11.2,-,-,0,-,-,-,-,-,-
ANARBE,2014-04-19,0.319,0.628,0.919,1.548,0.0,10.5,-,-,0,-,-,-,-,-,-
ANARBE,2014-04-20,0.333,0.704,0.976,1.68,9.0,10.1,-,-,0,-,-,-,-,-,-
ANARBE,2014-04-21,0.33,0.691,0.996,1.687,6.7,10.4,-,-,0,-,-,-,-,-,-
ANARBE,2014-04-22,0.309,0.576,1.136,1.712,3.9,11.1,-,-,0,-,-,-,-,-,-
ANARBE,2014-04-23,0.301,0.544,0.956,1.5,0.7,11.2,-,-,0,-,-,-,-,-,-
ANARBE,2014-04-24,0.278,0.451,1.067,1.518,13.1,11.3,-,-,0,-,-,-,-,-,-
ANARBE,2014-04-25,0.305,0.571,1.511,2.082,7.3,10.9,-,-,0,-,-,-,-,-,-
ANARBE,2014-04-26,0.296,0.527,1.35,1.877,10.5,10.6,-,-,0,-,-,-,-,-,-
ANARBE,2014-04-27,0.319,0.632,1.489,2.12,2.9,11.6,-,-,0,-,-,-,-,-,-
ANARBE,2014-04-28,0.327,0.679,1.484,2.163,11.7,11.3,-,-,0,-,-,-,-,-,-
ANARBE,2014-04-29,0.338,0.735,1.493,2.228,5.9,12.8,-,-,0,-,-,-,-,-,-
ANARBE,2014-04-30,0.374,0.996,1.51,2.505,2.3,13.2,-,-,0,-,-,-,-,-,-
ANARBE,2014-05-01,0.402,1.267,1.541,2.808,11.3,12.2,-,-,0,-,-,-,-,-,-
ANARBE,2014-05-02,0.511,2.684,1.536,4.22,18.0,10.8,-,-,0,-,-,-,-,-,-
ANARBE,2014-05-03,0.527,2.901,1.481,4.381,8.6,10.9,-,-,0,-,-,-,-,-,-
ANARBE,2014-05-04,0.489,2.319,1.45,3.77,0.0,10.6,-,-,0,-,-,-,-,-,-
ANARBE,2014-05-05,0.448,1.753,1.44,3.193,0.0,15.5,-,-,0,-,-,-,-,-,-
ANARBE,2014-05-06,0.412,1.346,1.434,2.781,0.0,14.8,-,-,0,-,-,-,-,-,-
ANARBE,2014-05-07,0.36,0.91,1.499,2.409,0.0,14.7,-,-,0,-,-,-,-,-,-
ANARBE,2014-05-08,0.332,0.706,1.553,2.259,0.0,13.1,-,-,0,-,-,-,-,-,-
ANARBE,2014-05-09,0.329,0.69,1.403,2.093,0.0,14.3,-,-,0,-,-,-,-,-,-
ANARBE,2014-05-10,0.317,0.616,1.347,1.963,0.0,15.2,-,-,0,-,-,-,-,-,-
ANARBE,2014-05-11,0.319,0.635,1.362,1.997,9.9,12.6,-,-,0,-,-,-,-,-,-
ANARBE,2014-05-12,0.273,0.436,1.408,1.845,1.5,11.3,-,-,0,-,-,-,-,-,-
ANARBE,2014-05-13,0.262,0.396,1.398,1.794,2.2,10.4,-,-,0,-,-,-,-,-,-
ANARBE,2014-05-14,0.256,0.38,1.275,1.655,0.3,11.9,-,-,0,-,-,-,-,-,-
ANARBE,2014-05-15,0.258,0.385,1.178,1.562,0.0,12.5,-,-,0,-,-,-,-,-,-
ANARBE,2014-05-16,0.256,0.378,1.104,1.482,0.0,10.9,-,-,0,-,-,-,-,-,-
ANARBE,2014-05-17,0.259,0.388,1.043,1.43,0.0,12.2,-,-,0,-,-,-,-,-,-
ANARBE,2014-05-18,0.262,0.398,0.957,1.355,0.0,16.7,-,-,0,-,-,-,-,-,-
ANARBE,2014-05-19,0.27,0.423,0.894,1.317,12.5,19.0,-,-,0,-,-,-,-,-,-
ANARBE,2014-05-20,0.369,1.134,1.401,2.535,33.3,14.6,-,-,0,-,-,-,-,-,-
ANARBE,2014-05-21,0.283,0.467,1.292,1.759,2.4,16.2,-,-,0,-,-,-,-,-,-
ANARBE,2014-05-22,0.274,0.435,1.163,1.598,8.7,12.6,-,-,0,-,-,-,-,-,-
ANARBE,2014-05-23,0.293,0.516,1.422,1.938,16.7,11.1,-,-,0,-,-,-,-,-,-
ANARBE,2014-05-24,0.281,0.46,1.308,1.767,5.1,11.8,-,-,0,-,-,-,-,-,-
ANARBE,2014-05-25,0.396,1.204,1.612,2.816,21.3,10.7,-,-,0,-,-,-,-,-,-
ANARBE,2014-05-26,0.451,1.81,1.49,3.3,6.3,11.8,-,-,0,-,-,-,-,-,-
ANARBE,2014-05-27,0.39,1.132,1.37,2.502,0.3,12.8,-,-,0,-,-,-,-,-,-
ANARBE,2014-05-28,0.353,0.841,1.456,2.297,5.8,10.7,-,-,0,-,-,-,-,-,-
ANARBE,2014-05-29,0.35,0.831,1.545,2.375,2.5,14.1,-,-,0,-,-,-,-,-,-
ANARBE,2014-05-30,0.376,1.018,1.551,2.569,13.2,12.9,-,-,0,-,-,-,-,-,-
ANARBE,2014-05-31,0.492,2.403,1.529,3.932,12.0,13.7,-,-,0,-,-,-,-,-,-
ANARBE,2014-06-01,0.467,1.999,1.439,3.439,18.9,13.5,-,-,0,-,-,-,-,-,-
ANARBE,2014-06-02,0.449,1.766,1.432,3.198,7.1,12.5,-,-,0,-,-,-,-,-,-
ANARBE,2014-06-03,0.425,1.487,1.391,2.878,0.0,13.5,-,-,0,-,-,-,-,-,-
ANARBE,2014-06-04,0.429,1.54,1.394,2.934,9.1,12.2,-,-,0,-,-,-,-,-,-
ANARBE,2014-06-05,0.402,1.251,1.364,2.615,0.0,16.4,-,-,0,-,-,-,-,-,-
ANARBE,2014-06-06,0.382,1.066,1.32,2.386,1.0,20.3,-,-,0,-,-,-,-,-,-
ANARBE,2014-06-07,0.366,0.929,1.303,2.232,2.4,18.1,-,-,0,-,-,-,-,-,-
ANARBE,2014-06-08,0.343,0.764,1.283,2.047,0.0,18.8,-,-,0,-,-,-,-,-,-
ANARBE,2014-06-09,0.357,0.938,1.29,2.228,39.2,17.2,-,-,0,-,-,-,-,-,-
ANARBE,2014-06-10,0.335,0.73,1.352,2.082,1.4,16.4,-,-,0,-,-,-,-,-,-
ANARBE,2014-06-11,0.298,0.53,1.372,1.902,0.0,17.6,-,-,0,-,-,-,-,-,-
ANARBE,2014-06-12,0.251,0.374,1.347,1.721,0.0,19.9,-,-,0,-,-,-,-,-,-
ANARBE,2014-06-13,0.218,0.282,1.332,1.614,0.0,19.3,-,-,0,-,-,-,-,-,-
ANARBE,2014-06-14,0.2,0.243,1.323,1.566,0.0,17.2,-,-,0,-,-,-,-,-,-
ANARBE,2014-06-15,0.184,0.212,1.264,1.475,0.1,17.9,-,-,0,-,-,-,-,-,-
ANARBE,2014-06-16,0.154,0.142,1.314,1.456,0.0,16.9,-,-,0,-,-,-,-,-,-
ANARBE,2014-06-17,0.143,0.116,1.283,1.399,0.0,17.1,-,-,0,-,-,-,-,-,-
ANARBE,2014-06-18,0.197,0.235,1.015,1.251,0.0,16.7,-,-,0,-,-,-,-,-,-
ANARBE,2014-06-19,0.209,0.261,0.889,1.15,0.0,17.6,-,-,0,-,-,-,-,-,-
ANARBE,2014-06-20,0.202,0.246,0.882,1.128,0.3,20.9,-,-,0,-,-,-,-,-,-
ANARBE,2014-06-21,0.217,0.282,0.874,1.157,11.5,21.0,-,-,0,-,-,-,-,-,-
ANARBE,2014-06-22,0.217,0.289,0.865,1.153,7.6,19.9,-,-,0,-,-,-,-,-,-
ANARBE,2014-06-23,0.22,0.305,0.868,1.172,2.2,19.1,-,-,0,-,-,-,-,-,-
ANARBE,2014-06-24,0.187,0.214,0.877,1.092,0.6,18.4,-,-,0,-,-,-,-,-,-
ANARBE,2014-06-25,0.343,1.112,0.932,2.044,15.1,18.2,-,-,0,-,-,-,-,-,-
ANARBE,2014-06-26,0.286,0.527,0.903,1.429,8.8,15.8,-,-,0,-,-,-,-,-,-
ANARBE,2014-06-27,0.235,0.342,0.882,1.224,0.4,16.8,-,-,0,-,-,-,-,-,-
ANARBE,2014-06-28,0.219,0.285,0.873,1.158,2.7,17.8,-,-,0,-,-,-,-,-,-
ANARBE,2014-06-29,0.207,0.258,0.877,1.135,0.5,15.4,-,-,0,-,-,-,-,-,-
ANARBE,2014-06-30,0.186,0.212,0.867,1.079,0.0,17.2,-,-,0,-,-,-,-,-,-
ANARBE,2014-07-01,0.207,0.259,0.866,1.125,12.6,16.5,-,-,0,-,-,-,-,-,-
ANARBE,2014-07-02,0.215,0.276,0.87,1.145,4.4,16.0,-,-,0,-,-,-,-,-,-
ANARBE,2014-07-03,0.239,0.398,0.861,1.26,19.9,17.3,-,-,0,-,-,-,-,-,-
ANARBE,2014-07-04,0.696,7.039,1.182,8.221,78.9,17.8,-,-,0,-,-,-,-,-,-
ANARBE,2014-07-05,0.469,2.06,1.09,3.151,7.3,20.0,-,-,0,-,-,-,-,-,-
ANARBE,2014-07-06,0.462,2.011,1.156,3.168,28.0,16.3,-,-,0,-,-,-,-,-,-
ANARBE,2014-07-07,0.483,2.234,1.322,3.556,9.0,14.5,-,-,0,-,-,-,-,-,-
ANARBE,2014-07-08,0.454,1.835,1.269,3.104,13.4,15.2,-,-,0,-,-,-,-,-,-
ANARBE,2014-07-09,0.467,2.027,1.316,3.344,2.3,15.6,-,-,0,-,-,-,-,-,-
ANARBE,2014-07-10,0.411,1.332,1.503,2.834,0.2,15.5,-,-,0,-,-,-,-,-,-
ANARBE,2014-07-11,0.404,1.266,1.486,2.752,12.7,16.1,-,-,0,-,-,-,-,-,-
ANARBE,2014-07-12,0.435,1.605,1.499,3.104,12.7,15.8,-,-,0,-,-,-,-,-,-
ANARBE,2014-07-13,0.411,1.33,1.484,2.814,0.3,17.7,-,-,0,-,-,-,-,-,-
ANARBE,2014-07-14,0.415,1.377,1.448,2.826,9.9,17.9,-,-,0,-,-,-,-,-,-
ANARBE,2014-07-15,0.381,1.049,1.425,2.474,0.0,19.4,-,-,0,-,-,-,-,-,-
ANARBE,2014-07-16,0.357,0.863,1.425,2.288,0.0,22.2,-,-,0,-,-,-,-,-,-
ANARBE,2014-07-17,0.358,0.881,1.321,2.202,0.0,24.8,-,-,0,-,-,-,-,-,-
ANARBE,2014-07-18,0.369,0.955,1.193,2.148,0.6,19.8,-,-,0,-,-,-,-,-,-
ANARBE,2014-07-19,0.356,0.867,1.193,2.06,1.6,20.0,-,-,0,-,-,-,-,-,-
ANARBE,2014-07-20,0.35,0.817,1.194,2.011,14.8,17.5,-,-,0,-,-,-,-,-,-
ANARBE,2014-07-21,0.389,1.123,0.858,1.981,12.0,16.9,-,-,0,-,-,-,-,-,-
ANARBE,2014-07-22,0.366,0.931,0.557,1.487,0.0,18.1,-,-,0,-,-,-,-,-,-
ANARBE,2014-07-23,0.355,0.854,0.557,1.411,0.0,20.2,-,-,0,-,-,-,-,-,-
ANARBE,2014-07-24,0.342,0.796,0.558,1.355,1.1,18.6,-,-,0,-,-,-,-,-,-
ANARBE,2014-07-25,0.339,0.781,0.557,1.337,3.9,20.6,-,-,0,-,-,-,-,-,-
ANARBE,2014-07-26,0.326,0.684,0.552,1.236,0.0,20.6,-,-,0,-,-,-,-,-,-
ANARBE,2014-07-27,0.316,0.61,0.549,1.16,0.0,20.2,-,-,0,-,-,-,-,-,-
ANARBE,2014-07-28,0.321,0.647,0.551,1.198,15.9,18.1,-,-,0,-,-,-,-,-,-
ANARBE,2014-07-29,0.408,1.364,0.565,1.929,15.8,17.2,-,-,0,-,-,-,-,-,-
ANARBE,2014-07-30,0.351,0.824,0.556,1.38,1.2,16.8,-,-,0,-,-,-,-,-,-
ANARBE,2014-07-31,0.331,0.7,0.547,1.247,0.0,19.8,-,-,0,-,-,-,-,-,-
ANARBE,2014-08-01,0.32,0.631,0.543,1.174,3.7,19.7,-,-,0,-,-,-,-,-,-
ANARBE,2014-08-02,0.32,0.634,0.54,1.174,3.1,19.6,-,-,0,-,-,-,-,-,-
ANARBE,2014-08-03,0.305,0.558,0.538,1.096,0.5,19.1,-,-,0,-,-,-,-,-,-
ANARBE,2014-08-04,0.302,0.546,0.538,1.084,3.7,18.5,-,-,0,-,-,-,-,-,-
ANARBE,2014-08-05,0.285,0.48,0.534,1.014,0.0,18.5,-,-,0,-,-,-,-,-,-
ANARBE,2014-08-06,0.274,0.437,0.531,0.969,0.0,18.2,-,-,0,-,-,-,-,-,-
ANARBE,2014-08-07,0.267,0.414,0.528,0.942,0.0,20.8,-,-,0,-,-,-,-,-,-
ANARBE,2014-08-08,0.295,0.553,0.53,1.083,17.3,20.7,-,-,0,-,-,-,-,-,-
ANARBE,2014-08-09,0.274,0.436,0.525,0.961,0.0,21.9,-,-,0,-,-,-,-,-,-
ANARBE,2014-08-10,0.258,0.386,0.517,0.903,3.7,21.5,-,-,0,-,-,-,-,-,-
ANARBE,2014-08-11,0.274,0.438,0.527,0.965,3.1,17.2,-,-,0,-,-,-,-,-,-
ANARBE,2014-08-12,0.204,0.257,0.743,1.0,2.6,18.6,-,-,0,-,-,-,-,-,-
ANARBE,2014-08-13,0.353,0.867,0.936,1.802,34.8,15.3,-,-,0,-,-,-,-,-,-
ANARBE,2014-08-14,0.315,0.623,0.926,1.55,6.0,15.8,-,-,0,-,-,-,-,-,-
ANARBE,2014-08-15,0.287,0.491,0.92,1.411,2.3,16.0,-,-,0,-,-,-,-,-,-
ANARBE,2014-08-16,0.285,0.481,0.923,1.403,3.4,15.1,-,-,0,-,-,-,-,-,-
ANARBE,2014-08-17,0.258,0.389,0.917,1.306,0.0,16.9,-,-,0,-,-,-,-,-,-
ANARBE,2014-08-18,0.242,0.343,0.899,1.242,0.6,17.5,-,-,0,-,-,-,-,-,-
ANARBE,2014-08-19,0.245,0.351,0.915,1.266,0.4,17.4,-,-,0,-,-,-,-,-,-
ANARBE,2014-08-20,0.225,0.299,0.913,1.212,0.4,16.1,-,-,0,-,-,-,-,-,-
ANARBE,2014-08-21,0.211,0.266,0.91,1.176,0.0,15.1,-,-,0,-,-,-,-,-,-
ANARBE,2014-08-22,0.208,0.259,0.911,1.171,2.1,14.1,-,-,0,-,-,-,-,-,-
ANARBE,2014-08-23,0.195,0.231,0.905,1.136,0.0,15.1,-,-,0,-,-,-,-,-,-
ANARBE,2014-08-24,0.183,0.204,0.897,1.101,0.0,16.7,-,-,0,-,-,-,-,-,-
ANARBE,2014-08-25,0.171,0.179,0.883,1.063,0.0,17.7,-,-,0,-,-,-,-,-,-
ANARBE,2014-08-26,0.166,0.167,0.882,1.05,2.3,19.1,-,-,0,-,-,-,-,-,-
ANARBE,2014-08-27,0.177,0.192,0.874,1.066,1.0,22.0,-,-,0,-,-,-,-,-,-
ANARBE,2014-08-28,0.157,0.149,0.87,1.019,1.5,20.2,-,-,0,-,-,-,-,-,-
ANARBE,2014-08-29,0.179,0.197,0.884,1.082,7.5,18.0,-,-,0,-,-,-,-,-,-
ANARBE,2014-08-30,0.16,0.156,0.88,1.036,0.1,17.1,-,-,0,-,-,-,-,-,-
ANARBE,2014-08-31,0.142,0.115,0.864,0.979,0.0,18.3,-,-,0,-,-,-,-,-,-
ANARBE,2014-09-01,0.196,0.242,0.677,0.918,0.0,18.4,-,-,0,-,-,-,-,-,-
ANARBE,2014-09-02,0.258,0.385,0.393,0.779,0.0,18.2,-,-,0,-,-,-,-,-,-
ANARBE,2014-09-03,0.253,0.372,0.382,0.754,0.1,17.5,-,-,0,-,-,-,-,-,-
ANARBE,2014-09-04,0.251,0.364,0.354,0.718,0.6,17.0,-,-,0,-,-,-,-,-,-
ANARBE,2014-09-05,0.248,0.357,0.342,0.699,0.0,17.8,-,-,0,-,-,-,-,-,-
ANARBE,2014-09-06,0.246,0.352,0.32,0.672,0.0,20.9,-,-,0,-,-,-,-,-,-